Location: ??????
(56.0120°N, 39.1740°E)
Time: 07:34:34
(UTC+00:00)

Cosmos 2082 Rocket - Pass Details

Date: 14 April 2026
Orbit: 831 x 853 km, 71.0° (Epoch: 9 May)

Event Time Altitude Azimuth Distance (km) Brightness Sun altitude
Exits shadow 23:18:13 19° 155° (SSE) 1,914 3.7 -20.1°
Maximum altitude 23:21:20 32° 107° (ESE) 1,436 3.5 -19.9°
Drops below altitude 10° 23:26:19 10° 47° (NE) 2,495 5.8 -19.5°
Sets 23:29:00 0° 38° (NE) 3,436 7.0 -19.3°
